Showing default

STARLETTE, 7646

Orbit data source: Space-Track

STARLETTE, 7646 is a payload satellite owned by CNES (FR) in LEO that was launched on Thu, 06 Feb 1975 UTC via a DIAMANT BP.4 launch vehicle from the French Guiana (FRGUI). Payloads include a variety of satellites, spacecraft, and rockets equipped with specific instruments for various scientific and technological missions. These include communications satellites like Starlink; space stations such as the ISS; scientific satellites like the Hubble; Earth observation satellites from companies like Planet Labs, Umbra, and HawkEye 360; GPS; miniature CubeSats for education and research; and military/defense satellites.

Loading next visibility...
STARLETTE details
Identifier
7646, 1975-010A
Orbit
LEO
Last TLE update6 hours ago
Origin
Flag of FRCNES (FR)
ManufacturerCNES
MissionOperational Civil Geodetic
Bus & MotorSTARLETTE, Unknown motor
Mass48 kg wet, 48 kg dry
Launch date (UTC)
1975-02-06 (50 years ago)
Launch vehicle
DIAMANT BP.4
Launch site
French Guiana (FRGUI)
Object type
Payload
Rocket body
Debris
Shape & HBRSphere, 0.26 m
Radar Cross Section0.053 m², Medium (>0.1 m² and < 1m²)

Expand to show TLE details & history

TLE from 6 hours ago
0 STARLETTE
1 07646U 75010A   25025.59527444 -.00000124  00000-0  14220-4 0  9991
2 07646  49.8254 308.1417 0205700 186.2295 173.6032 13.82339103524329
Epoch: 2025-01-25T14:17Z
Definitive object data (Epoch: 2025-01-25T14:17:11.711Z)
Latitude-0.00001°
Longitude-31.29894°
Altitude1,106.049 km
Speed7.226 km/s
True Right ascension20h 32m 34s
True Declination0° 00' 00"
Sunlit
Object was in daylight at TLE epoch
Visualization TLE readout
Latitude49.94645°
Longitude60.23447°
Altitude972.3 km
Speed7.366 km/s
Apparent Right ascension06h 02m 45s
Apparent Declination13° 51' 32"
Sunlit
Object is in daylight
Visualization observer readout
Local Sidereal Time21:17:44
Azimuth50.838° ENE
Elevation-19.714°
Doppler factor1
Orbital elements
Apogee altitude1,107.224 km
Perigee altitude805.483 km
Semi-major axis7,334.49 km
Eccentricity0.02057
Inclination49.8254°
RAAN308.1417°
Arg. of periapsis186.2295°
True anomaly173.85927°
Mean anomaly173.6032°
Eccentric anomaly173.73188°
Mean motion3.45532 °/min
BSTAR0.00001422
Orbital period104.19 mins
Loading maneuver chart data...
Loading historical data...
Loading historical data...
Loading historical data...
Loading historical data...
Loading historical data...
Loading historical data...
Loading historical data...

STARLETTE Visibility forecast

Observer location: undefined°, undefined

Span
Click to sort rows by Start time (UTC) header in descending order
Start Az.
Max El. time (UTC)
Max El. Az.
Max El.
End time (UTC)
End Az.
12 mins2025-01-25 21:22:42.879Z217.357° SW2025-01-25 21:28:42.879Z152.445° SSE41.505°2025-01-25 21:34:42.879Z62.464° ENE
11 mins2025-01-25 23:13:42.879Z269.858° W2025-01-25 23:18:42.879Z345.012° N37.35°2025-01-25 23:24:42.879Z53.02° ENE
9 mins2025-01-26 01:04:42.879Z306.232° NW2025-01-26 01:08:42.879Z358.279° N29.243°2025-01-26 01:13:42.879Z60.732° ENE
10 mins2025-01-26 02:54:42.879Z313.454° NW2025-01-26 02:58:42.879Z11.187° NNE37.543°2025-01-26 03:04:42.879Z98.194° ESE
9 mins2025-01-26 04:43:42.879Z292.513° NW2025-01-26 04:47:42.879Z240.2° WSW37.368°2025-01-26 04:52:42.879Z151.602° SSE
|